Location: Newark
(7.0858°N, 171.3717°E)
Time: 05:18:32
(UTC+00:00)

Courier 1B Rocket - Pass Details

Date: 29 November 2020
Orbit: 920 x 1202 km, 28.2° (Epoch: 20 January)

Event Time Altitude Azimuth Distance (km) Brightness Sun altitude
Rises 02:43:51 0° 280° (W) 3,738 8.4 45.1°
Reaches altitude 10° 02:46:56 10° 270° (W) 2,743 8.1 44.5°
Maximum altitude 02:52:33 30° 211° (SSW) 1,648 7.9 43.5°
Drops below altitude 10° 02:57:58 10° 152° (SSE) 2,625 7.5 42.4°
Sets 03:00:52 0° 141° (SE) 3,553 7.9 41.8°
